Regional Weather Roundup
Issued by NWS Charleston, SC

Current Version | Previous Version | Text Only | Print | Product List | Glossary On
Versions: 1 2 3 4 5 6 7 8 9 10 11 12 13 14 15 16 17 18 19 20 21 22 23 24 25 26 27 28 29 30 31 32 33 34 35 36 37 38 39 40 41 42 43 44 45 46 47 48 49 50
029
ASUS42 KCHS 181312
RWRCHS

Regional Weather Roundup
National Weather Service Charleston SC
800 AM EST MON DEC 18 2017

NOTE: "fair" indicates few or no clouds below 12,000 feet with no
significant weather and/or obstructions to visibility.

Not all stations are quality controlled. Use data with caution,
especially dewpoint observations.

SCZ027-030-031-034>040-042>050-181400-
...Southeast South Carolina...

CITY           SKY/WX    TMP DP  RH WIND       PRES   REMARKS
N Charleston   CLOUDY    60  58  92 SW7       30.19R
Waterfront Prk   N/A     58  57  96 CALM      30.03R
Mount Pleasant PTSUNNY   63  59  88 CALM      30.19R
Johns Island   CLOUDY    63  61  94 SW5       30.19R
Pinopolis        N/A     61  59  94 SW5       30.08R
Moncks Corner  CLOUDY    59  57  94 CALM      30.18R
Summerville    PTSUNNY   59  55  88 SW3       30.20R
Beaufort MCAS  CLOUDY    61  60  97 S5        30.20R
Beaufort Arpt  CLOUDY    61  59  94 SW3       30.19S FOG
Hilton Head Is CLOUDY    61  59  94 S9        30.21R
Walterboro     CLOUDY    57  55  94 S3        30.20R
Allendale      CLOUDY    57  55  94 CALM      30.19R

...Southern Midlands and Pee Dee...

CITY           SKY/WX    TMP DP  RH WIND       PRES   REMARKS
Georgetown     CLOUDY    55  55 100 CALM      30.19R
Kingstree      CLOUDY    54  50  87 CALM      30.18R
Orangeburg     CLOUDY    56  50  80 CALM      30.19R
Barnwell         N/A     59  55  88 CALM      30.19R
Aiken          CLOUDY    50  43  76 SW5       30.22R
Manning        CLOUDY    54  43  66 MISG      30.19R
Columbia       CLOUDY    53  43  68 CALM      30.18R
Sumter         CLOUDY    52  44  72 CALM      30.16R
Florence       PTCLDY    46  42  86 CALM      30.18R
Myrtle Beach   NOT AVBL
N Myrtle Beach PTCLDY    54  53  97 CALM      30.17R

$$

GAZ063-065-086>088-099>101-113>116-118-119-134>141-150-181400-
...Southeast Georgia...

CITY           SKY/WX    TMP DP  RH WIND       PRES   REMARKS
Savannah Arpt  CLOUDY    59  58  96 S7        30.22R
Hunter AAF     LGT RAIN  61  57  88 SW3       30.19R FOG
Fort Stewart   CLOUDY    55  54  94 CALM      30.19S
Statesboro     CLOUDY    59  59 100 CALM      30.20R
Sylvania       CLOUDY    58  56  92 CALM      30.20R
Claxton        CLOUDY    57  56  97 CALM      30.20S

...CSRA, Central and far Southeast Georgia...

CITY           SKY/WX    TMP DP  RH WIND       PRES   REMARKS
Thomson        CLOUDY    50  45  83 CALM      30.24S
Augusta-Bush   CLOUDY    55  44  66 CALM      30.19R
Augusta-Daniel CLOUDY    53  43  68 CALM      30.20R
Swainsboro     CLOUDY   N/A N/A N/A CALM      30.19S
Vidalia        DRIZZLE   59  59 100 CALM      30.20R
Eastman        CLOUDY    62  56  80 S3        30.22R HAZE
Hazlehurst     DRZL/FOG  61  60  95 CALM      30.20R VSB 1/4
Alma           FOG       60  59  96 CALM      30.20S VSB 1/4
Waycross       CLOUDY    60  58  90 CALM      30.21R
Jesup          NOT AVBL
Baxley         CLOUDY    57  57 100 CALM      30.20R FOG
Brunswick      CLOUDY    57  55  94 CALM      30.22R
Saint Simons   CLOUDY    61  60  97 CALM      30.21R

$$

SCZ027-028-034-036>038-045-046-048>050-GAZ119-141-181400-
...Lake and Supplemental Coastal Observations...

STATION/POSITION TIME  TEMP    WIND        PRES    WAVE   SWELL
                       AIR SEA DIR/SP/G            HT/PER HT/PER/DIR
                 (UTC) (F)     (DEG/KT/KT) (MB)    (FT/S) (FT/S/D)
Winyah Bay       NOT AVBL
Lake Murray      NOT AVBL
ACE Basin NERRS  1145   59        CALM     1022.0
Fort Pulaski     1242   57 54  220/  3/  3 1023.2R
Sapelo Island    1200   58     180/  5     1022.0

$$

ANZ835-935-AMZ111-154-330-350-352-354-370-450-454-472-181400-
...C-MAN and Buoy Observations...

STATION/POSITION TIME  TEMP    WIND        PRES    WAVE   SWELL
                       AIR SEA DIR/SP/G            HT/PER HT/PER/DIR
                 (UTC) (F)     (DEG/KT/KT) (MB)    (FT/S) (FT/S/D)
Buoy 41004       1250   70 73  240/ 12/ 16 1022.0R   3/ 5   2/130/ 9
Buoy 41008       1150   61 59  170/  8/  8 1022.0    2/10   2/ 60/10
Folly Beach CMAN 1200   59     260/  5/  6 1022.4R
Capers Nearshore 1208   54 55  220/  6/  8 1021.6R


STATION/POSITION TIME  TEMP    WIND        PRES    WAVE   SWELL
                       AIR SEA DIR/SP/G            HT/PER HT/PER/DIR
                 (UTC) (F)     (DEG/KT/KT) (MB)    (FT/S) (FT/S/D)
5E St. Marys GA  1230      62                N/A     1/10
Frying Pan Buoy  1250   69 69  230/ 16/ 19 1021.2F   2/ 4
Buoy 41025       1250   61 72  280/ 10/ 14 1022.3R   2/ 3   2/130/10
Cape Lookout NC  1200          280/  2/  2 1022.2R
Buoy 41002       1150   72 74  220/ 14/ 17 1022.5    2/ 9   2/ 70/ 9
Buoy 41010       NOT AVBL
St Augustine FL  1300   63 64  170/  6/  7 1023.6R


$$




USA.gov is the U.S. government's official web portal to all federal, state and local government web resources and services.